EW0495 Weather Reports


Display with metric or nautical units.
time (UTC)temp
F
wind
direction
speed
MPH
gust
MPH
rain 1hr
in
rain 24hr
in
rain mn
in
humidity
%
barometer
mb
20200410094635 0 0.0 0.0 0.00 0.01 0.00 1012.9
20200410093127 0 0.0 0.0 0.00 0.01 0.00 1012.6
20200410091609 0 0.0 0.0 0.00 0.01 0.00 1012.3
20200410090148 0 0.0 0.0 0.00 0.01 0.00 1012.2
20200410084613 0 0.0 0.0 0.00 0.01 0.00 1012.0
20200410083121 0 0.0 0.0 0.00 0.01 0.00 1012.0
20200410081512 0 0.0 0.0 0.00 0.01 0.00 1011.9
20200410080012 0 0.0 0.0 0.00 0.01 0.00 1011.8
20200410073049 0 0.0 0.0 0.00 0.01 0.00 1011.3
20200410071504 0 0.0 0.0 0.00 0.01 0.00 1011.2
20200410070123 0 0.0 0.0 0.00 0.01 0.00 1011.0
20200410064637 0 0.0 0.0 0.00 0.01 0.00 1010.8
20200410063142 0 0.0 0.0 0.00 0.01 0.00 1010.6
20200410061657 0 0.0 0.0 0.00 0.01 0.00 1010.5
20200410060121 0 0.0 0.0 0.00 0.01 0.00 1010.3
20200410054604 0 0.0 0.0 0.00 0.01 0.00 1010.2
20200410053017 0 0.0 0.0 0.00 0.01 0.00 1009.9
20200410051507 0 0.0 0.0 0.00 0.01 0.00 1010.0
20200410044654 0 0.0 0.0 0.00 0.01 0.01 1009.5
20200410043101 0 0.0 0.0 0.00 0.01 0.01 1009.9
20200410043020 0 0.0 0.0 0.00 0.01 0.01 1009.9
20200410041640 0 0.0 0.0 0.00 0.01 0.01 1010.0
20200410040127 0 0.0 0.0 0.00 0.01 0.01 1009.9
20200410034620 0 0.0 0.0 0.00 0.02 0.01 1009.8
20200410033116 0 0.0 0.0 0.00 0.02 0.01 1010.0
20200410031651 0 0.0 0.0 0.00 0.02 0.01 1009.8
20200410030052 0 0.0 0.0 0.00 0.02 0.01 1009.9
20200410024646 0 0.0 0.0 0.00 0.23 0.01 1009.6
20200410023208 0 0.0 0.0 0.00 0.23 0.01 1009.7
20200410020131 62 245 0.0 0.0 0.00 0.23 0.01 53 1009.7
20200410014606 63 245 0.0 0.0 0.00 0.23 0.01 53 1010.1
20200410014512 63 245 0.0 0.0 0.00 0.23 0.01 53 1010.1
20200410013028 63 245 0.0 0.0 0.00 0.23 0.01 52 1010.0
20200410011520 63 245 0.0 0.0 0.00 0.23 0.01 53 1009.7
20200410010135 63 245 0.0 0.0 0.00 0.23 0.01 53 1009.3
20200410004607 62 245 0.0 0.0 0.00 0.23 0.01 52 1008.6
20200410003225 62 245 0.0 0.0 0.00 0.23 0.01 53 1008.2
20200410001644 62 245 0.0 0.0 0.00 0.23 0.01 52 1008.0
20200410000145 61 245 0.0 0.0 0.00 0.23 0.01 52 1007.6
20200409234617 60 245 0.0 0.0 0.00 0.23 0.01 50 1007.3
20200409233030 59 245 0.0 0.0 0.00 0.23 0.01 43 1007.1
20200409231634 59 244 0.0 0.0 0.00 0.23 0.01 39 1007.2
20200409230013 59 245 0.0 0.0 0.00 0.23 0.01 39 1007.1
20200409224516 60 245 0.0 0.0 0.00 0.23 0.01 38 1006.8
20200409223028 60 245 0.0 0.0 0.00 0.23 0.01 38 1006.7
20200409221537 60 245 0.0 0.0 0.00 0.23 0.01 39 1006.8
20200409220134 61 245 0.0 0.0 0.00 0.23 0.01 38 1006.4
20200409214543 61 245 0.0 0.0 0.00 0.23 0.01 38 1006.1
20200409213124 61 245 0.0 0.0 0.00 0.23 0.01 38 1005.7
20200409211550 62 245 0.0 0.0 0.00 0.23 0.01 38 1005.5
20200409210111 62 245 0.0 0.0 0.00 0.23 0.01 38 1005.2
20200409204927 62 245 0.0 0.0 0.00 0.23 0.01 39 1005.0
20200409203139 62 245 0.0 0.0 0.00 0.23 0.01 40 1004.9
20200409201631 62 245 0.0 0.0 0.00 0.23 0.01 39 1005.0
20200409194608 62 245 0.0 0.0 0.00 0.23 0.01 38 1005.5
20200409193106 62 245 0.0 0.0 0.00 0.23 0.01 38 1006.0
20200409191552 62 245 0.0 0.0 0.00 0.23 0.01 38 1006.3
20200409190112 62 245 0.0 0.0 0.00 0.23 0.01 42 1006.3
20200409184614 62 245 0.0 0.0 0.00 0.23 0.01 40 1006.4
20200409183100 62 245 0.0 0.0 0.00 0.23 0.01 42 1006.4
20200409181630 62 245 0.0 0.0 0.00 0.23 0.01 41 1006.5
20200409180143 62 244 0.0 0.0 0.00 0.23 0.01 42 1006.7
20200409174608 62 245 0.0 0.0 0.00 0.23 0.01 43 1006.8
20200409173105 62 245 0.0 0.0 0.00 0.23 0.01 43 1006.9
20200409171532 62 245 0.0 0.0 0.00 0.23 0.01 44 1007.1
20200409170004 62 245 0.0 0.0 0.00 0.23 0.01 45 1007.0
20200409163034 62 245 0.0 0.0 0.01 0.23 0.01 45 1007.2
20200409161538 62 245 0.0 0.0 0.01 0.23 0.01 47 1007.3
20200409160146 61 245 0.0 0.0 0.01 0.23 0.01 49 1007.4
20200409154649 60 245 0.0 0.0 0.01 0.23 0.01 49 1007.7
20200409153042 59 224 0.0 0.0 0.00 0.22 0.00 45 1007.7
20200409151547 59 140 0.0 0.0 0.00 0.22 0.00 48 1007.7
20200409150039 58 166 0.0 0.0 0.00 0.22 0.00 48 1007.7
20200409144546 56 257 0.0 1.0 0.00 0.22 0.00 51 1007.4
20200409143034 55 156 0.0 1.0 0.00 0.22 0.00 53 1007.2
20200409141536 54 142 0.0 3.0 0.00 0.22 0.00 51 1007.1
20200409140343 54 135 0.0 1.0 0.00 0.22 0.00 53 1007.0
20200409140003 54 143 0.0 1.0 0.00 0.22 0.00 53 1007.0
20200409134708 53 165 0.0 0.0 0.00 0.22 0.00 59 1006.6
20200409131610 51 204 0.0 2.0 0.00 0.22 0.00 65 1006.4
20200409130127 50 276 0.0 0.0 0.00 0.22 0.00 66 1006.4
20200409124600 50 206 0.0 0.0 0.00 0.22 0.00 70 1006.2
20200409123027 49 252 0.0 3.0 0.00 0.22 0.00 73 1006.0
20200409121528 49 269 0.0 1.0 0.00 0.22 0.00 76 1005.8
20200409120047 0 0.0 0.0 0.00 0.22 0.00 1005.5
20200409114643 0 0.0 0.0 0.00 0.22 0.00 1005.4
20200409113042 0 0.0 0.0 0.00 0.22 0.00 1005.2
20200409111517 0 0.0 0.0 0.00 0.22 0.00 1004.8
20200409110015 0 0.0 0.0 0.00 0.22 0.00 1004.4
20200409103052 0 0.0 0.0 0.00 0.22 0.00 1003.8
20200409101551 0 0.0 0.0 0.00 0.22 0.00 1003.4
20200409101508 0 0.0 0.0 0.00 0.22 0.00 1003.4